Prescott, AZ

7:02 AM MST on August 04, 2015 (GMT -0700)
Prescott Heights | | Change Station
CLOSE
Current Station
Personal Weather Station
Location: Prescott, AZ
Elevation: 5305 ft
Nearby Weather Stations

Elev 5305 ft 34.55 °N, 112.47 °W | Updated 3 seconds ago

Clear
Clear
69.8 °F
Feels Like 69.8 °F
N
3.0
Wind Variable Wind from WSW
Gusts 4.0 mph

Today
High -- | Low -- °F
--% Chance of Precip.
Yesterday
High -- | Low -- °F
Precip. -- in
5:42 AM 7:29 PM
Waning Gibbous, 77% visible
Pressure 29.91 in
Visibility 10.0 miles
Clouds Clear
Dew Point 42 °F
Humidity 36%
Rainfall 0.00 in
Snow Depth Not available.
UV 1 out of 12
Pollen 5.20 out of 12
Air Quality Not available.
Flu Activity Not available.
METAR KPRC 041353Z 19006KT 10SM CLR 20/07 A3018 RMK AO2 SLP128 T02000072

More Conditions Fewer Conditions

Pressure 29.91 in
Visibility 10.0 miles
Clouds Clear
Dew Point 42 °F
Humidity 36%
Rainfall 0.00 in
Snow Depth Not available.
UV 1 out of 12
Pollen 5.20 out of 12
Air Quality Not available.
Flu Activity Not available.
METAR KPRC 041353Z 19006KT 10SM CLR 20/07 A3018 RMK AO2 SLP128 T02000072

More Conditions Fewer Conditions

10-Day Weather Forecast

×

Almanac

Astronomy

Aug. 04, 2015 Rise Set
Actual Time
Civil Twilight
Nautical Twilight
Astronomical Twilight
Moon
Length of Visible Light
Length of Day
Tomorrow will be .
, % of the Moon is Illuminated

Today's Extremes

State Highs State Lows

Community

WunderPhotos

Upload Photos

1,843,912 photos uploaded!

WunderBlogs® & News

Nearby

Air Quality

  Air Quality AQ Index Pollutant
Not available.

Snow Depth

Station Depth Elevation

Earthquake Activity

City Distance Mag. Time & Date
Minimum magnitude displayed is 2.5.

Coastal Water Temperatures

Place Temperature

Stations

Nearby Weather Stations

Station Location Temp. Windchill Dew Point Humidity Wind Precip. Elev Updated Type